Lid_Strength_Index
14 15 15 14 14 15 15 16 15 14 13 13 13 13 13 13 13 13 13 12 12 12 12 12 12 11 11 10 9 9 9 9 12 11 10 10 11 11 10 11 10 9 8
15 15 14 14 15 15 16 16 15 15 14 13 13 13 13 13 13 13 13 13 13 13 13 12 12 11 11 11 10 10 10 9 11 12 12 12 11 11 11 12 12 12 11
15 15 15 15 17 21 21 18 17 17 17 14 13 13 13 13 13 13 13 13 13 13 12 12 12 12 12 11 11 10 9 9 9 10 11 11 10 11 12 12 12 12 12
15 15 16 17 18 21 22 17 19 19 16 14 13 14 14 14 13 13 13 13 13 12 12 12 12 12 12 11 10 10 10 11 10 11 11 11 10 11 12 11 12 13 12
17 18 19 21 22 23 24 20 14 13 17 13 14 14 14 14 13 12 12 13 13 13 12 12 12 12 11 10 9 10 11 11 11 11 11 10 10 12 12 12 12 13 14
19 20 22 24 24 25 26 24 17 15 20 17 16 14 14 13 11 10 11 14 13 13 13 13 12 12 11 10 9 8 9 11 11 11 10 10 9 10 11 11 12 12 12
20 23 24 26 26 26 26 25 22 22 22 21 20 18 16 14 11 11 12 14 14 14 13 12 12 12 12 12 10 9 9 8 8 9 10 10 9 9 10 12 12 13 15
22 22 24 25 25 26 26 25 25 24 22 22 22 22 21 17 12 11 12 16 16 16 14 13 12 12 12 12 12 12 12 11 10 10 9 9 8 9 9 10 12 15 15
21 21 22 22 23 26 25 25 25 23 21 22 21 23 22 21 13 11 14 17 16 17 16 14 12 12 11 11 12 13 13 14 12 12 11 9 7 7 11 12 13 13 16
20 19 20 21 22 23 23 25 24 24 20 19 19 22 21 21 15 12 13 15 18 17 18 15 13 12 12 11 14 15 17 17 16 16 16 16 16 14 13 12 12 13 16
19 21 21 21 22 22 22 22 21 22 21 23 20 21 21 21 20 13 13 17 19 18 17 16 15 12 12 12 13 17 17 18 18 19 18 18 18 18 18 18 17 14 15
20 20 20 20 20 20 20 19 19 19 19 21 21 21 20 19 15 14 14 14 15 19 18 15 15 13 13 13 14 14 15 17 18 19 20 20 21 21 21 21 20 19 19
20 20 20 19 19 18 18 18 18 18 19 19 19 21 20 18 19 14 14 14 15 18 17 15 15 15 16 18 15 16 20 20 20 21 21 22 22 21 20 20 19 20 21
20 20 19 19 18 19 17 17 17 18 19 19 19 20 21 20 19 19 18 19 18 19 20 21 17 17 17 19 22 21 22 23 23 23 23 23 22 22 22 22 21 21 22
19 19 18 18 19 18 17 17 17 17 17 19 19 20 22 22 19 15 16 19 22 19 27 27 25 25 25 24 24 25 25 24 25 27 26 26 25 24 24 25 25 26 26
19 19 18 18 19 19 19 18 14 14 13 13 13 17 19 15 13 13 13 13 14 16 27 29 28 28 28 29 29 28 28 28 28 28 29 28 28 27 27 27 26 27 26
18 17 18 18 19 19 20 19 19 18 12 12 12 12 12 13 13 13 13 13 15 19 29 30 29 29 28 30 31 30 29 30 32 30 30 30 29 30 30 29 28 29 30
18 18 18 18 18 19 19 19 18 19 19 19 16 14 12 12 12 13 13 17 25 25 30 30 29 29 30 30 30 30 31 31 31 31 31 33 33 31 31 32 31 32 33
19 18 18 18 17 17 17 18 18 18 18 21 25 19 18 14 13 13 13 25 26 28 30 30 31 32 31 32 32 33 32 31 32 32 32 31 33 33 33 34 31 32 33
21 21 20 19 21 19 18 17 17 18 18 19 21 20 27 25 25 25 26 27 27 27 28 29 29 32 32 32 32 32 31 30 30 31 31 32 33 33 32 32 32 32 33
20 19 17 16 18 18 18 18 17 17 18 19 19 22 19 20 20 21 21 23 23 25 26 21 20 18 20 21 26 31 31 30 31 32 32 32 34 31 33 31 33 34 33
17 16 16 15 16 17 21 21 21 20 22 21 23 24 15 19 22 21 21 22 24 23 20 17 17 17 19 21 22 25 26 27 28 29 30 31 31 32 32 29 31 33 33
17 17 17 17 17 17 17 18 20 21 21 20 22 22 22 21 19 19 20 20 19 16 19 20 20 22 25 25 26 25 25 25 24 25 24 24 25 26 26 26 26 27 26
16 17 17 17 18 18 18 18 19 19 21 21 22 21 22 23 23 22 19 17 19 20 21 21 22 22 23 23 24 24 24 24 24 24 24 25 25 24 24 24 24 24 23
20 20 19 19 18 18 18 19 19 19 20 22 25 25 25 22 19 20 20 21 21 22 23 22 22 22 23 23 23 23 23 21 24 23 24 24 23 24 24 24 24 23 23
23 23 23 23 22 22 22 22 22 23 23 23 23 23 22 23 22 22 22 22 23 23 23 23 23 23 23 23 22 20 20 19 20 21 23 23 23 24 24 24 23 24 24